• In United Kingdom
  • List of Countries
  • For 7 days
  • Water Temperature
  • Satellite Maps
  • Weather Map
  • Weather Widgets
  • user-avatar
    Login

    Hourly Weather Adelaide

    Today, 25 February, Sunday

    Time Temperature Precipitation Wind Pressure Humidity
    00:00 +19°C° 0 mm 4 mps 755 mmHg 75%
    01:00 +19°C° 0 mm 4 mps 755 mmHg 75%
    02:00 +19°C° 0 mm 4 mps 755 mmHg 75%
    03:00 +18°C° 0 mm 4 mps 755 mmHg 76%
    04:00 +18°C° 0 mm 4 mps 756 mmHg 76%
    05:00 +18°C° 0 mm 4 mps 756 mmHg 75%
    06:00 +17°C° 0 mm 4 mps 756 mmHg 75%
    07:00 +19°C° 0 mm 4 mps 757 mmHg 68%
    08:00 +20°C° 0 mm 4 mps 757 mmHg 62%
    09:00 +20°C° 0 mm 5 mps 757 mmHg 57%
    10:00 +21°C° 0 mm 5 mps 757 mmHg 53%
    11:00 +22°C° 0 mm 5 mps 757 mmHg 49%
    12:00 +25°C° 0 mm 5 mps 757 mmHg 45%
    13:00 +24°C° 0 mm 6 mps 756 mmHg 45%
    14:00 +23°C° 0 mm 6 mps 756 mmHg 45%
    15:00 +23°C° 0 mm 6 mps 756 mmHg 46%
    16:00 +22°C° 0 mm 6 mps 756 mmHg 50%
    17:00 +21°C° 0 mm 6 mps 757 mmHg 53%
    18:00 +20°C° 0 mm 6 mps 757 mmHg 56%
    19:00 +19°C° 0 mm 6 mps 757 mmHg 60%
    20:00 +17°C° 0 mm 6 mps 758 mmHg 64%
    21:00 +16°C° 0 mm 5 mps 758 mmHg 68%
    22:00 +16°C° 0 mm 5 mps 758 mmHg 69%
    23:00 +17°C° 0 mm 4 mps 758 mmHg 69%

    Tomorrow, 26 February, Monday

    Time Temperature Precipitation Wind Pressure Humidity
    00:00 +17°C° 0 mm 4 mps 758 mmHg 70%
    01:00 +17°C° 0 mm 3 mps 758 mmHg 69%
    02:00 +16°C° 0 mm 3 mps 758 mmHg 67%
    03:00 +16°C° 0 mm 3 mps 758 mmHg 66%
    04:00 +16°C° 0 mm 3 mps 758 mmHg 67%
    05:00 +14°C° 0 mm 3 mps 758 mmHg 67%
    06:00 +15°C° 0 mm 2 mps 758 mmHg 68%
    07:00 +17°C° 0 mm 2 mps 758 mmHg 60%
    08:00 +19°C° 0 mm 2 mps 758 mmHg 52%
    09:00 +20°C° 0 mm 2 mps 758 mmHg 44%
    10:00 +23°C° 0 mm 2 mps 758 mmHg 38%
    11:00 +25°C° 0 mm 2 mps 757 mmHg 32%
    12:00 +27°C° 0 mm 2 mps 757 mmHg 26%
    13:00 +28°C° 0 mm 3 mps 757 mmHg 27%
    14:00 +28°C° 0 mm 3 mps 756 mmHg 27%
    15:00 +29°C° 0 mm 4 mps 756 mmHg 27%
    16:00 +28°C° 0 mm 4 mps 756 mmHg 31%
    17:00 +27°C° 0 mm 4 mps 756 mmHg 35%
    18:00 +26°C° 0 mm 3 mps 756 mmHg 39%
    19:00 +25°C° 0 mm 3 mps 756 mmHg 44%
    20:00 +22°C° 0 mm 3 mps 756 mmHg 50%
    21:00 +21°C° 0 mm 3 mps 756 mmHg 56%
    22:00 +21°C° 0 mm 2 mps 756 mmHg 56%
    23:00 +20°C° 0 mm 2 mps 756 mmHg 56%

    Day after tomorrow, 27 February, Tuesday

    Time Temperature Precipitation Wind Pressure Humidity
    00:00 +20°C° 0 mm 2 mps 756 mmHg 57%
    01:00 +20°C° 0 mm 2 mps 755 mmHg 56%
    02:00 +20°C° 0 mm 2 mps 755 mmHg 54%
    03:00 +20°C° 0 mm 2 mps 755 mmHg 53%
    04:00 +21°C° 0 mm 3 mps 755 mmHg 52%
    05:00 +21°C° 0 mm 3 mps 755 mmHg 51%
    06:00 +21°C° 0 mm 3 mps 755 mmHg 51%
    07:00 +25°C° 0 mm 4 mps 755 mmHg 44%
    08:00 +28°C° 0 mm 4 mps 755 mmHg 37%
    09:00 +30°C° 0 mm 5 mps 755 mmHg 31%
    10:00 +33°C° 0 mm 5 mps 754 mmHg 27%
    11:00 +34°C° 0 mm 4 mps 754 mmHg 24%
    12:00 +36°C° 0 mm 4 mps 753 mmHg 21%
    13:00 +36°C° 0 mm 4 mps 753 mmHg 20%
    14:00 +37°C° 0 mm 3 mps 752 mmHg 19%
    15:00 +37°C° 0 mm 3 mps 751 mmHg 18%
    16:00 +36°C° 0 mm 3 mps 751 mmHg 19%
    17:00 +35°C° 0 mm 2 mps 751 mmHg 20%
    18:00 +34°C° 0 mm 2 mps 751 mmHg 21%
    19:00 +32°C° 0 mm 2 mps 751 mmHg 22%
    20:00 +31°C° 0 mm 2 mps 751 mmHg 22%
    21:00 +30°C° 0 mm 3 mps 751 mmHg 22%
    22:00 +29°C° 0 mm 4 mps 751 mmHg 23%
    23:00 +29°C° 0 mm 4 mps 751 mmHg 24%

    28 February, Wednesday

    Time Temperature Precipitation Wind Pressure Humidity
    00:00 +29°C° 0 mm 5 mps 751 mmHg 25%
    01:00 +26°C° 0 mm 6 mps 751 mmHg 43%
    02:00 +23°C° 0 mm 7 mps 752 mmHg 60%
    03:00 +21°C° 0 mm 7 mps 752 mmHg 78%
    04:00 +21°C° 0 mm 7 mps 753 mmHg 74%
    05:00 +20°C° 0 mm 6 mps 754 mmHg 70%
    06:00 +20°C° 0 mm 6 mps 755 mmHg 66%
    07:00 +20°C° 0 mm 6 mps 756 mmHg 60%
    08:00 +21°C° 0 mm 6 mps 756 mmHg 54%
    09:00 +22°C° 0 mm 6 mps 757 mmHg 49%
    10:00 +23°C° 0 mm 6 mps 757 mmHg 47%
    11:00 +24°C° 0 mm 6 mps 757 mmHg 46%
    12:00 +24°C° 0 mm 6 mps 757 mmHg 45%
    13:00 +24°C° 0 mm 6 mps 757 mmHg 45%
    14:00 +24°C° 0 mm 6 mps 757 mmHg 45%
    15:00 +24°C° 0 mm 6 mps 757 mmHg 45%
    16:00 +23°C° 0 mm 6 mps 757 mmHg 47%
    17:00 +22°C° 0 mm 6 mps 758 mmHg 50%
    18:00 +21°C° 0 mm 6 mps 759 mmHg 52%
    19:00 +20°C° 0 mm 5 mps 759 mmHg 57%
    20:00 +19°C° 0 mm 5 mps 760 mmHg 62%
    21:00 +17°C° 0 mm 5 mps 760 mmHg 67%
    22:00 +17°C° 0 mm 5 mps 760 mmHg 68%
    23:00 +17°C° 0 mm 5 mps 760 mmHg 70%

    1 March, Thursday

    Time Temperature Precipitation Wind Pressure Humidity
    00:00 +17°C° 0 mm 4 mps 760 mmHg 71%
    01:00 +17°C° 0 mm 4 mps 760 mmHg 72%
    02:00 +17°C° 0 mm 4 mps 760 mmHg 73%
    03:00 +17°C° 0 mm 3 mps 759 mmHg 74%
    04:00 +17°C° 0 mm 3 mps 760 mmHg 75%
    05:00 +17°C° 0 mm 4 mps 760 mmHg 76%
    06:00 +15°C° 0 mm 4 mps 760 mmHg 77%
    07:00 +18°C° 0 mm 4 mps 760 mmHg 72%
    08:00 +19°C° 0 mm 4 mps 761 mmHg 67%
    09:00 +20°C° 0 mm 4 mps 761 mmHg 62%
    10:00 +21°C° 0 mm 4 mps 760 mmHg 56%
    11:00 +23°C° 0 mm 4 mps 760 mmHg 51%
    12:00 +25°C° 0 mm 4 mps 759 mmHg 45%
    13:00 +26°C° 0 mm 4 mps 759 mmHg 44%
    14:00 +26°C° 0 mm 4 mps 758 mmHg 43%
    15:00 +27°C° 0 mm 5 mps 758 mmHg 41%
    16:00 +25°C° 0 mm 5 mps 758 mmHg 47%
    17:00 +23°C° 0 mm 5 mps 758 mmHg 53%
    18:00 +22°C° 0 mm 6 mps 758 mmHg 58%
    19:00 +21°C° 0 mm 5 mps 758 mmHg 63%
    20:00 +20°C° 0 mm 5 mps 759 mmHg 67%
    21:00 +19°C° 0 mm 5 mps 759 mmHg 71%
    22:00 +19°C° 0 mm 5 mps 759 mmHg 71%
    23:00 +20°C° 0 mm 4 mps 758 mmHg 71%

    2 March, Friday

    Time Temperature Precipitation Wind Pressure Humidity
    00:00 +20°C° 0 mm 4 mps 758 mmHg 71%
    01:00 +20°C° 0 mm 4 mps 758 mmHg 70%
    02:00 +20°C° 0 mm 3 mps 757 mmHg 69%
    03:00 +20°C° 0 mm 3 mps 757 mmHg 67%
    04:00 +20°C° 0 mm 3 mps 757 mmHg 66%
    05:00 +20°C° 0 mm 3 mps 757 mmHg 64%
    06:00 +20°C° 0 mm 3 mps 757 mmHg 63%
    07:00 +21°C° 0 mm 3 mps 757 mmHg 57%
    08:00 +24°C° 0 mm 3 mps 757 mmHg 51%
    09:00 +25°C° 0 mm 3 mps 757 mmHg 45%
    10:00 +27°C° 0 mm 3 mps 757 mmHg 41%
    11:00 +28°C° 0 mm 2 mps 756 mmHg 36%
    12:00 +30°C° 0 mm 2 mps 756 mmHg 31%
    13:00 +31°C° 0 mm 2 mps 755 mmHg 30%
    14:00 +31°C° 0 mm 2 mps 755 mmHg 28%
    15:00 +32°C° 0 mm 2 mps 754 mmHg 27%
    16:00 +31°C° 0 mm 2 mps 754 mmHg 29%
    17:00 +30°C° 0 mm 2 mps 754 mmHg 31%
    18:00 +29°C° 0 mm 2 mps 754 mmHg 33%
    19:00 +28°C° 0 mm 2 mps 754 mmHg 37%
    20:00 +26°C° 0 mm 2 mps 754 mmHg 41%
    21:00 +25°C° 0 mm 3 mps 755 mmHg 45%
    22:00 +25°C° 0 mm 2 mps 754 mmHg 46%
    23:00 +24°C° 0 mm 2 mps 754 mmHg 47%
    Show more